Regional Weather Roundup
Issued by NWS

Home | Current Version | Previous Version | Graphics & Text | Print | Product List | Glossary On
Versions: 1 2 3 4 5 6 7 8 9 10 11 12 13 14 15 16 17 18 19 20 21 22 23 24 25 26 27 28 29 30 31 32 33 34 35 36 37 38 39 40 41 42 43 44 45 46 47 48 49 50
000
ASUS43 KLOT 222110
RWRIL

ILLINOIS REGIONAL WEATHER ROUNDUP
NATIONAL WEATHER SERVICE CHICAGO/ROMEOVILLE IL
300 PM CST SAT NOV 22 2014

NOTE: "FAIR" INDICATES FEW OR NO CLOUDS BELOW 12,000 FEET WITH NO
SIGNIFICANT WEATHER AND/OR OBSTRUCTIONS TO VISIBILITY.

* THESE STATIONS ARE NOT UNDER NWS QUALITY CONTROL. THEY ALSO MAY NOT
  REPORT WEATHER SUCH AS PRECIPITATION OR FOG.

ILZ001-002-007-009-015-016-024-222200-
NORTHWEST ILLINOIS

CITY           SKY/WX    TMP DP  RH WIND       PRES   REMARKS
MOLINE         CLOUDY    56  48  74 S12       29.82F
STERLING*      CLOUDY    52  46  82 SW5       29.84F
SAVANNA*       CLOUDY    50  47  88 SW5       29.82F FOG
$$

ILZ003-004-008-010-011-017-018-222200-
NORTH CENTRAL ILLINOIS

CITY           SKY/WX    TMP DP  RH WIND       PRES   REMARKS
ROCKFORD       CLOUDY    48  45  89 S7        29.85F FOG
FREEPORT*      CLOUDY    47  46  94 SW10G17   29.83F FOG
ROCHELLE*      CLOUDY    46  44  93 S12       29.85S FOG
DE KALB*       CLOUDY    46  43  90 S13       29.86S
PERU*          CLOUDY    55  47  74 SW14      29.87F
$$

ILZ005-006-012>014-019>023-222200-
NORTHEAST ILLINOIS

CITY           SKY/WX    TMP DP  RH WIND       PRES   REMARKS
CHICAGO-OHARE  CLOUDY    49  43  80 SW12      29.86F
CHICAGO-MIDWAY CLOUDY    50  45  83 SW12      29.89S
AURORA         CLOUDY    51  43  74 S12       29.88S
LANSING*       CLOUDY    48  45  90 SW7       29.90F
JOLIET*        CLOUDY    51  46  82 SW9       29.89S
WAUKEGAN       CLOUDY    46  42  86 S15       29.84S FOG
DUPAGE AIRPORT CLOUDY    49  44  83 S9        29.86S
KANKAKEE*      LGT RAIN  53  47  82 S15G22    29.92S
WHEELING       CLOUDY    48  43  82 S10       29.88S
MORRIS*        CLOUDY    53  48  83 SW16      29.88S
ROMEOVILLE*    CLOUDY    50  45  83 SW10      29.88S
NORTHERLY ISL    N/A     49  43  80 SW13        N/A
$$

LMZ740>746-222200-
SOUTHERN LAKE MICHIGAN

STATION/POSITION SKY/WX   TEMP    WIND        PRES    VSBY  WAVE
                          AIR SEA DIR/SP/G                  HT/PER
                          (F)     (DEG/KT/KT) (MB)    (MI)  (FT/S)
SOUTHERN BUOY              44 42  200/ 17/ 21 1011.4F         4/ 6
WAUKEGAN HARBOR            47     210/ 12/ 18   N/A
HARRISON CRIB              48     200/ 21/ 28   N/A
BURNHAM HARBOR             50     210/ 10/ 13   N/A
CALUMET HARBOR             49     190/  8/ 12 1010.8F
MICHIGAN CITY              47     150/ 13/ 18   N/A
$$

ILZ025>027-034>036-040-047-049-050-058-095>099-222200-
WEST-CENTRAL ILLINOIS

CITY           SKY/WX    TMP DP  RH WIND       PRES   REMARKS
QUINCY         CLOUDY    58  49  72 S14       29.87F
GALESBURG*     CLOUDY    56  48  76 S9        29.86S
MACOMB*        CLOUDY    58  50  75 SW13G20   29.88S
JACKSONVILLE*  CLOUDY    60  48  65 S16       29.90F
PITTSFIELD*    CLOUDY    59  49  70 S13       29.90F
$$

ILZ028>032-037-038-041>044-048-051>054-059>061-222200-
CENTRAL ILLINOIS

CITY           SKY/WX    TMP DP  RH WIND       PRES   REMARKS
PONTIAC        CLOUDY    54  49  83 S13       29.91S
BLOOMINGTON    CLOUDY    54  46  74 SW20      29.93R
DECATUR        CLOUDY    56  46  69 S18       29.95F
PEORIA         CLOUDY    58  48  69 S10       29.89S
LACON*         CLOUDY    55  46  73 SW8       29.87S
LINCOLN*       CLOUDY    57  45  64 S10G17    29.92S
SPRINGFIELD    CLOUDY    58  46  64 S18G24    29.93F
TAYLORVILLE    CLOUDY    55  45  67 S22       29.94F
$$

ILZ033-039-045-046-055>057-062-063-222200-
EAST-CENTRAL ILLINOIS

CITY           SKY/WX    TMP DP  RH WIND       PRES   REMARKS
CHAMPAIGN      CLOUDY    55  46  71 S18       29.96S
DANVILLE*      CLOUDY    54  46  74 S16G23    29.94S
RANTOUL*       CLOUDY    55  47  73 SW13G18   29.94S
MATTOON        CLOUDY    57  44  62 S13G20    29.98F
PARIS*         CLOUDY    56  47  70 S16       30.00F
$$

ILZ079-100>102-222200-
SOUTHWEST ILLINOIS

CITY           SKY/WX    TMP DP  RH WIND       PRES   REMARKS
ALTON          CLOUDY    55  48  76 S21       29.97F
BELLEVILLE     CLOUDY    54  52  93 S9        29.99F
CAHOKIA*       LGT RAIN  55  51  86 S5        29.99F
SPARTA*        LGT RAIN  55  49  79 S12       30.01F
$$

ILZ064>066-069>071-074>076-080>082-084>086-088>090-092>094-222200-
SOUTH-CENTRAL ILLINOIS

CITY           SKY/WX    TMP DP  RH WIND       PRES   REMARKS
CARBONDALE     CLOUDY    60  44  55 S20G28    30.04F
CAIRO*         CLOUDY    67  41  39 S8        30.07F
EFFINGHAM*     CLOUDY    60  41  49 S14G23    30.01S
MARION         CLOUDY    63  45  51 S17G35    30.05F
MT. VERNON     CLOUDY    55  46  71 S6        30.04F
CENTRALIA*     CLOUDY    58  46  64 SW13      30.03S
SALEM*           N/A     61  46  58 S21G26    30.01F
METROPOLIS*    CLOUDY    64  41  41 SW12G17   30.08F
$$

ILZ067-068-072-073-078-083-087-091-222200-
SOUTHEAST ILLINOIS

CITY           SKY/WX    TMP DP  RH WIND       PRES   REMARKS
LAWRENCEVILLE  PTSUNNY   62  43  49 SW22G33   30.05F
FLORA*         PTSUNNY   60  44  55 S18G26    30.03F
FAIRFIELD*     RAIN      58  46  63 S10       30.04F
HARRISBURG*    PTSUNNY   63  41  45 S14G20    30.08F
ROBINSON*      PTSUNNY   61  43  51 SW20G30   30.05R
CARMI*         PTSUNNY   64  45  49 S16G23    30.06F
$$

ABBREVIATIONS USED IN REMARKS
   TC - TEMPERATURE IN CELSIUS
  WCI - WIND CHILL INDEX
   HX - HEAT INDEX
  VSB - VISIBILITY
$$




USA.gov is the U.S. government's official web portal to all federal, state and local government web resources and services.